Wind_Speed
1 2 2 2 2 2 2 2 2 3 3 3 4 4 5 6 6 6 6 6 6 6 7 7 7 7 7 8 8 7 8 8 8 8 8 8 9 8 8 8 8 8 8
2 2 2 2 3 3 3 3 3 3 3 3 3 4 5 5 6 6 6 6 7 7 7 7 7 8 7 8 8 8 8 8 9 9 8 8 9 9 8 8 8 9 8
2 2 2 2 3 3 3 4 4 4 4 4 4 5 5 5 6 6 7 7 7 7 7 7 7 8 8 8 9 9 9 9 9 9 9 9 9 9 9 9 9 10 9
2 2 2 3 3 3 3 4 4 4 4 4 5 5 5 6 6 7 7 7 7 7 7 7 7 8 9 9 10 10 10 9 9 9 10 10 10 10 10 10 10 11 11
2 2 3 3 3 3 4 4 4 4 4 5 5 6 6 6 6 7 8 8 8 8 8 8 8 8 8 9 10 10 10 10 10 10 10 11 11 11 11 11 10 11 12
3 3 3 4 4 4 4 5 5 5 5 5 5 6 6 6 6 7 8 8 8 9 9 9 9 8 8 9 9 10 11 11 11 11 10 11 11 11 11 11 11 12 12
4 4 4 5 5 5 5 6 6 6 6 6 6 6 7 7 7 7 8 9 9 9 10 10 10 10 10 9 9 9 10 11 11 12 12 12 12 11 12 12 12 12 13
5 5 5 5 6 6 6 6 7 6 6 6 7 7 7 8 8 8 8 9 9 10 10 10 10 11 11 11 11 10 11 10 10 11 11 12 12 12 12 13 13 13 14
5 5 6 6 6 6 7 7 7 7 7 7 7 8 8 8 8 9 9 9 10 11 11 11 11 11 11 11 10 10 11 11 11 11 11 12 12 12 13 13 14 14 14
5 5 6 7 7 7 7 8 8 8 8 8 8 8 9 8 8 9 10 10 10 11 11 12 12 12 12 11 11 11 11 11 12 12 12 13 13 13 13 14 14 15 15
5 5 6 7 7 7 8 8 8 8 8 8 9 9 9 9 9 9 10 11 10 10 11 11 12 13 13 13 13 12 13 13 13 13 12 13 14 14 14 14 14 15 16
5 5 6 7 7 7 8 9 9 8 8 9 9 9 9 9 9 10 10 11 11 11 11 12 12 12 13 14 14 14 14 14 14 13 14 14 14 14 15 15 15 14 15
6 6 6 8 8 8 8 9 9 9 9 9 10 10 10 10 10 11 11 11 12 12 12 12 12 13 13 14 14 15 15 15 14 14 14 15 15 15 14 14 14 14 14
6 6 6 7 8 9 9 9 9 9 10 10 10 9 10 10 11 11 12 12 12 13 13 13 13 14 13 13 14 15 15 15 15 15 15 15 15 15 15 15 14 14 13
6 6 7 7 8 8 8 9 9 9 10 10 10 10 11 11 11 11 12 13 13 12 13 13 14 14 14 14 14 14 14 15 16 16 16 16 16 16 15 15 15 14 14
6 7 7 7 8 8 8 9 9 9 10 10 11 11 11 12 12 12 12 12 12 12 13 14 14 14 14 14 14 14 15 15 15 15 15 16 15 15 15 15 15 15 15
7 7 7 7 8 8 9 9 9 10 10 11 11 11 11 12 12 13 12 12 12 13 13 14 14 15 14 15 15 15 15 15 15 15 16 16 16 16 16 16 16 17 16
7 8 8 8 8 9 9 10 10 10 10 11 11 11 12 12 13 13 12 12 12 13 13 14 14 15 14 15 15 15 15 16 15 15 16 16 16 16 16 16 17 17 17
9 10 10 9 9 9 10 10 11 11 11 11 11 11 12 13 13 13 13 13 13 13 13 13 14 15 15 15 16 16 16 16 16 16 16 16 16 17 17 17 17 18 18
10 11 11 11 11 10 11 11 11 12 12 12 12 12 13 13 13 13 14 14 14 14 14 14 14 15 15 16 16 16 16 16 16 16 17 17 18 18 18 18 18 18 18
11 11 11 12 11 11 12 12 12 13 13 13 13 13 14 14 14 15 15 15 15 15 15 15 15 15 16 16 16 16 16 16 16 17 17 17 18 19 19 19 18 19 19
11 11 12 12 12 12 12 12 13 13 13 13 13 14 14 15 15 16 16 16 15 15 16 16 16 16 16 16 15 15 16 16 16 16 16 16 17 18 18 19 19 19 19
11 12 12 11 12 12 12 12 12 12 13 13 14 15 15 15 15 15 16 16 15 15 16 17 17 17 16 16 16 16 16 17 17 17 17 17 16 17 18 19 19 19 19
11 11 11 11 11 11 12 12 12 12 13 14 15 15 15 16 16 15 15 16 16 16 16 16 16 17 17 17 17 17 16 17 17 17 17 18 17 17 18 18 19 19 19
11 12 11 11 11 12 12 12 12 13 13 14 15 15 15 16 15 15 16 16 16 16 16 16 16 17 17 17 17 17 17 17 18 17 17 18 18 18 19 19 19 19 19
11 11 12 12 12 12 12 12 12 13 13 14 15 15 15 15 15 16 16 16 17 16 16 17 17 18 17 17 17 18 17 18 18 18 18 18 18 19 19 19 19 19 19
Wind_Direction
248 244 245 242 263 277 287 272 258 256 249 234 231 236 236 238 237 233 234 235 236 234 236 243 246 238 234 231 227 222 216 214 213 212 212 209 208 207 207 209 212 213 210
280 263 255 254 267 269 274 267 252 244 242 236 233 237 241 244 246 239 238 239 239 239 242 247 246 243 236 228 227 224 217 212 212 218 221 218 216 216 217 219 219 218 216
275 281 272 268 268 271 267 264 250 240 239 244 242 245 249 252 252 246 244 246 243 244 247 250 246 242 234 228 226 223 223 223 224 225 225 225 221 221 223 226 227 225 225
259 267 273 272 269 270 274 264 254 249 252 253 252 253 258 260 253 251 248 251 249 247 249 252 251 249 240 232 230 228 229 229 230 233 231 226 226 228 231 233 235 234 234
254 263 263 275 275 269 265 268 264 265 270 269 267 261 262 263 257 255 256 259 258 257 252 252 253 252 245 239 238 234 235 237 239 241 237 230 230 234 235 237 241 240 239
259 272 276 274 275 269 261 262 268 272 275 274 275 270 268 265 260 259 257 256 258 258 257 253 252 252 251 245 244 240 240 241 243 244 241 237 234 236 237 239 242 243 243
262 263 264 267 270 272 271 270 271 272 273 273 274 274 272 268 264 262 259 257 257 260 261 258 255 254 253 253 247 243 244 246 244 245 243 241 240 241 242 243 243 244 244
270 266 261 261 264 268 270 273 272 271 272 271 272 272 272 268 266 265 267 265 260 259 259 259 259 258 256 256 254 252 249 249 250 251 249 248 245 244 245 247 249 248 246
272 269 264 264 264 262 265 272 274 272 271 271 273 273 273 270 266 266 265 268 265 263 262 260 260 259 254 253 252 251 249 251 252 251 252 253 251 249 249 250 252 251 249
271 267 264 262 264 263 264 269 273 273 271 274 276 277 274 273 271 266 262 269 269 266 263 259 257 257 253 252 252 251 251 255 256 256 259 259 256 253 253 253 252 252 251
270 273 272 270 271 269 268 270 274 277 277 279 281 281 282 277 274 273 270 269 269 268 264 258 255 254 252 251 253 252 253 256 256 258 258 260 259 256 256 254 254 255 254
279 280 277 275 276 279 278 275 274 276 280 281 284 284 283 277 273 274 276 273 271 268 263 258 255 254 254 253 253 252 254 256 258 259 259 260 261 259 259 258 259 261 258
283 281 281 278 274 277 278 279 277 281 282 279 284 284 281 277 276 276 276 275 272 267 263 258 255 256 256 256 254 251 252 254 257 258 258 259 260 260 261 260 260 261 261
291 288 289 286 281 278 279 282 280 284 286 283 282 283 282 278 276 276 275 274 275 270 263 258 257 258 258 257 257 254 253 253 256 257 258 258 258 259 260 259 258 260 261
292 296 294 291 287 283 282 283 283 283 284 283 283 280 281 281 280 280 276 273 275 270 264 260 258 259 259 259 259 258 257 255 255 256 255 255 258 259 259 262 262 262 262
294 295 294 293 289 285 286 285 284 283 283 283 282 279 278 279 281 280 278 275 273 271 265 260 259 261 261 259 259 258 257 258 258 257 256 256 258 257 259 259 260 261 261
291 293 290 290 287 288 288 287 287 287 286 284 282 281 280 282 281 278 276 277 276 274 268 263 262 261 261 261 260 260 259 259 258 257 257 257 256 255 256 257 259 260 261
295 294 292 289 287 286 287 286 286 287 288 288 286 283 281 282 282 278 276 276 276 276 273 267 265 262 262 263 263 261 260 260 259 257 258 258 257 255 256 258 259 259 260
297 294 290 286 287 286 287 287 285 285 289 291 290 286 284 281 279 277 274 274 275 275 273 270 267 265 265 264 263 261 260 260 259 258 259 258 257 257 258 259 259 257 258
301 300 292 286 286 286 287 288 288 287 289 288 289 288 286 283 280 276 273 272 272 272 271 270 268 266 265 264 263 261 260 260 260 259 259 258 258 259 260 260 259 257 259
302 303 299 296 294 291 289 289 289 289 290 288 288 285 284 282 280 277 273 271 269 268 268 267 267 266 265 265 263 261 260 259 259 259 260 259 259 259 260 260 259 258 259
299 299 300 298 295 294 293 292 292 292 291 291 290 287 285 282 279 277 273 271 268 269 267 264 264 265 265 265 263 261 260 260 259 259 258 259 260 259 259 260 260 260 260
297 299 300 299 297 295 294 295 295 294 294 293 293 290 286 283 281 277 274 270 268 269 269 267 263 262 263 263 262 261 261 259 259 258 259 260 260 260 260 260 260 261 261
297 298 298 297 297 295 294 295 295 297 296 295 294 292 288 285 282 278 274 270 269 269 269 269 265 263 264 263 262 262 262 259 257 257 259 261 261 261 263 263 263 262 261
298 298 296 292 294 296 295 296 297 298 300 299 298 294 291 287 284 279 274 272 271 269 268 266 264 265 264 263 262 263 263 260 257 256 258 261 262 262 263 264 263 261 260
296 296 294 292 293 293 294 295 297 298 300 300 300 297 294 289 284 280 275 272 271 270 269 267 265 265 264 262 261 262 263 261 259 258 259 260 261 263 263 263 263 260 260
Height
5866 5866 5866 5866 5866 5866 5867 5867 5867 5867 5867 5867 5868 5868 5868 5868 5869 5869 5869 5869 5870 5870 5870 5870 5869 5869 5869 5870 5870 5870 5870 5871 5872 5873 5874 5874 5875 5876 5877 5878 5878 5879 5879
5866 5866 5866 5866 5866 5866 5866 5866 5866 5866 5866 5867 5867 5867 5867 5867 5868 5868 5868 5868 5869 5869 5869 5869 5869 5868 5868 5869 5869 5870 5870 5871 5871 5872 5873 5873 5874 5875 5876 5876 5877 5878 5878
5865 5865 5865 5865 5865 5865 5865 5865 5865 5866 5866 5866 5866 5866 5866 5866 5867 5867 5867 5867 5867 5867 5867 5867 5867 5867 5868 5868 5868 5869 5869 5870 5871 5871 5872 5872 5873 5874 5874 5875 5876 5876 5877
5864 5864 5864 5864 5864 5864 5864 5864 5865 5865 5865 5865 5865 5865 5865 5865 5865 5866 5866 5866 5866 5866 5866 5866 5866 5866 5866 5867 5867 5868 5868 5869 5870 5870 5871 5871 5872 5872 5873 5874 5874 5875 5876
5863 5863 5863 5863 5863 5863 5863 5864 5864 5864 5864 5864 5864 5864 5864 5864 5864 5864 5864 5864 5865 5865 5865 5865 5865 5865 5864 5865 5866 5867 5867 5868 5868 5869 5869 5870 5870 5871 5871 5872 5873 5873 5874
5862 5862 5862 5862 5862 5862 5863 5863 5863 5863 5863 5863 5863 5863 5863 5863 5863 5863 5863 5863 5863 5863 5863 5863 5863 5864 5863 5864 5864 5865 5866 5866 5867 5867 5867 5868 5868 5869 5870 5870 5871 5871 5872
5861 5861 5861 5861 5861 5861 5861 5862 5862 5862 5862 5862 5862 5862 5862 5861 5861 5861 5861 5861 5861 5861 5861 5861 5862 5862 5862 5862 5862 5863 5863 5864 5865 5865 5866 5866 5867 5867 5868 5868 5869 5869 5870
5860 5860 5860 5860 5860 5860 5860 5860 5860 5860 5860 5860 5860 5860 5860 5860 5860 5860 5860 5859 5859 5859 5859 5859 5860 5860 5860 5860 5861 5861 5861 5862 5863 5863 5863 5864 5864 5865 5865 5866 5866 5867 5867
5859 5859 5859 5859 5859 5859 5859 5859 5859 5859 5859 5858 5858 5858 5858 5858 5858 5858 5858 5857 5857 5857 5857 5857 5858 5858 5858 5859 5859 5859 5859 5860 5861 5861 5862 5862 5862 5863 5863 5863 5864 5864 5864
5857 5857 5857 5857 5857 5857 5857 5857 5857 5857 5857 5856 5856 5856 5856 5856 5855 5855 5855 5855 5855 5855 5855 5855 5855 5856 5856 5856 5857 5857 5858 5858 5858 5859 5859 5859 5860 5860 5861 5861 5861 5861 5862
5855 5855 5855 5855 5855 5855 5855 5855 5855 5855 5855 5854 5854 5854 5854 5853 5853 5853 5853 5853 5853 5852 5852 5853 5853 5853 5854 5854 5854 5855 5855 5855 5856 5856 5857 5857 5857 5857 5858 5858 5858 5858 5859
5854 5853 5853 5853 5853 5852 5852 5852 5852 5853 5853 5852 5852 5852 5851 5851 5851 5851 5850 5850 5850 5850 5850 5850 5850 5851 5851 5851 5852 5852 5853 5853 5853 5854 5854 5854 5854 5855 5855 5855 5855 5855 5856
5852 5852 5851 5851 5851 5850 5850 5850 5850 5850 5850 5850 5850 5849 5849 5849 5848 5848 5848 5847 5847 5847 5847 5847 5848 5848 5848 5849 5849 5849 5850 5850 5850 5851 5851 5851 5852 5852 5852 5852 5853 5853 5853
5851 5850 5849 5849 5848 5848 5848 5848 5848 5848 5847 5847 5847 5846 5846 5846 5846 5845 5845 5845 5844 5844 5844 5844 5845 5845 5845 5845 5846 5846 5847 5847 5847 5848 5848 5848 5848 5849 5849 5849 5849 5849 5850
5849 5848 5847 5847 5846 5846 5846 5846 5846 5845 5845 5844 5844 5843 5843 5843 5843 5842 5842 5842 5841 5841 5841 5841 5841 5842 5842 5842 5842 5843 5843 5844 5844 5844 5845 5845 5845 5845 5846 5846 5846 5846 5847
5847 5846 5845 5844 5844 5843 5843 5843 5843 5842 5842 5842 5841 5840 5840 5840 5840 5839 5839 5839 5838 5838 5837 5838 5838 5838 5839 5839 5839 5839 5840 5840 5840 5841 5841 5841 5841 5842 5842 5842 5843 5843 5844
5844 5844 5843 5842 5841 5841 5840 5840 5840 5839 5839 5838 5838 5837 5837 5836 5836 5836 5836 5835 5835 5834 5834 5834 5834 5835 5835 5835 5836 5836 5836 5836 5836 5837 5837 5837 5838 5838 5838 5839 5839 5839 5840
5842 5841 5840 5839 5839 5838 5837 5837 5837 5836 5836 5835 5835 5834 5833 5833 5832 5832 5832 5832 5832 5831 5831 5831 5831 5831 5831 5832 5832 5832 5832 5832 5833 5833 5833 5833 5834 5834 5835 5835 5835 5836 5836
5840 5839 5838 5837 5836 5835 5835 5834 5833 5833 5833 5832 5831 5830 5830 5829 5829 5828 5828 5828 5828 5828 5827 5827 5827 5827 5828 5828 5828 5828 5828 5829 5829 5829 5829 5830 5830 5830 5830 5831 5831 5831 5832
5837 5836 5835 5834 5833 5833 5832 5831 5830 5829 5829 5828 5827 5827 5826 5825 5825 5824 5824 5824 5824 5824 5824 5823 5823 5823 5824 5824 5824 5824 5824 5825 5825 5825 5825 5825 5826 5826 5826 5826 5827 5827 5827
5834 5833 5832 5831 5830 5829 5828 5827 5827 5826 5825 5824 5823 5823 5822 5821 5821 5820 5820 5820 5820 5820 5820 5819 5819 5819 5820 5820 5820 5820 5820 5820 5821 5821 5821 5821 5821 5821 5822 5822 5822 5822 5823
5832 5831 5829 5828 5827 5826 5825 5824 5823 5822 5821 5820 5819 5819 5818 5817 5816 5815 5815 5815 5815 5815 5815 5815 5815 5815 5815 5816 5816 5816 5816 5817 5816 5817 5817 5817 5817 5817 5817 5817 5818 5818 5818
5828 5827 5826 5824 5823 5822 5822 5821 5820 5819 5817 5817 5815 5814 5813 5812 5811 5811 5810 5810 5810 5810 5810 5810 5810 5811 5811 5811 5811 5812 5812 5812 5812 5813 5812 5813 5812 5812 5812 5813 5813 5813 5813
5825 5824 5823 5821 5820 5819 5818 5818 5816 5815 5814 5813 5811 5810 5808 5807 5806 5806 5806 5806 5806 5806 5806 5805 5806 5806 5806 5806 5806 5807 5807 5807 5808 5808 5808 5808 5808 5808 5808 5808 5808 5808 5808
5822 5821 5820 5819 5817 5816 5815 5814 5813 5812 5810 5809 5807 5806 5804 5803 5801 5801 5801 5801 5801 5801 5801 5801 5801 5801 5801 5801 5802 5802 5802 5802 5803 5803 5804 5803 5803 5803 5803 5803 5803 5803 5803
5819 5818 5817 5815 5814 5813 5812 5811 5810 5808 5807 5805 5803 5801 5800 5798 5797 5796 5796 5796 5796 5796 5796 5796 5796 5796 5796 5796 5797 5797 5797 5797 5798 5798 5798 5799 5799 5798 5798 5798 5798 5797 5797